User: anonymous   Login
Location: Unspecified
(0.0000°N, 0.0000°E)
Time: 01:42:50
(UTC+00:00)
Language:

USA 103 - Orbit

View from above orbital plane
View from above orbital plane
View from above satellite
View from above satellite

Ground track
Ground track

The orbit data is extracted from the following two-line orbital elements,

1 23097U 94026A   17112.88343617 0.00000000  00000-0  00000-0 0    07
2 23097  64.0289 143.7393 6459074 265.0096  23.8665  2.00606000    09
Epoch (UTC): 22 April 2017 21:12:08
Eccentricity: 0.6459074
inclination: 64.0289°
perigee height: 3025 km
apogee height: 37331 km
right ascension of ascending node: 143.7393°
argument of perigee: 265.0096°
revolutions per day: 2.00606000
mean anomaly at epoch: 23.8665°
orbit number at epoch: 0

The dashed part of the orbit path shows where the satellite is in the earth's shadow,  

DLR